COSMOS 2251 DEB, 34610

Orbit data source: Space-Track

COSMOS 2251 DEB, 34610 is space debris in LEO originally from a launch on Wed, 16 Jun 1993 UTC launched from the Plesetsk Missile And Space Complex (PKMTR). The debris from Iridium 33, an American commercial communications satellite, has been tracked extensively since its accidental collision with the defunct Russian satellite Cosmos 2251 in 2009. This event, occurring at high speed in low Earth orbit (LEO), generated thousands of pieces of space debris, significantly increasing the risk of further collisions. The Iridium 33 debris cloud has impacted space traffic management and orbital debris mitigation strategies, making it a subject of ongoing study in space situational awareness.

Loading next visibility...
Identifier
34610, 1993-036WF
Orbit
LEO
Country
Flag of CISCIS
Related business
Manufacturer
Unknown
Mission
Spacecraft
Bus & Motor
Unknown
Mass
Unknown
Launch date (UTC)
1993-06-16 (33 years ago)
Launch vehicle
Unknown
Launch site
Plesetsk Missile And Space Complex (PKMTR)
Object type
Payload
Rocket body
Debris
Shape & HBR
Unknown shape, 0.1 m
Radar Cross Section
Small (<0.1 m²)

Expand to show TLE details & history
Last TLE update: 1 day ago

TLE from 1 day ago
0 COSMOS 2251 DEB
1 34610U 93036WF  26120.01194700  .00001761  00000-0  90617-3 0  9999
2 34610  74.0186  19.6439 0180597 119.3451 242.5863 14.07838697875056
Epoch: 2026-04-30T00:17Z
TLE epoch observation values (Epoch: 2026-04-30T00:17:12.220Z)
Latitude
0.00004°
Longitude
157.37832°
Altitude
931.445 km
Speed
7.355 km/s
True Right ascension
01h 18m 34s
True Declination
0° 00' 00"
Sunlit
Object was in daylight at epoch
Visualization orbit readout
Latitude
Unknown
Longitude
Unknown
Altitude
Unknown
Speed
Unknown
Apparent Right ascension
Unknown
Apparent Declination
Unknown
Sunlit
N/A
Visualization observer readout
Local Sidereal Time
13:53:11
Azimuth
Unknown
Elevation
Unknown
Doppler factor
Unknown
Orbital elements
Apogee altitude
995.231 km
Perigee altitude
733.634 km
Semi-major axis
7,242.57 km
Eccentricity
0.01806
Inclination
74.0186°
RAAN
19.6439°
Arg. of periapsis
119.3451°
True anomaly
240.76841°
Mean anomaly
242.5863°
Eccentric anomaly
241.67544°
Mean motion
3.52131 °/min
Orbital period
102.23 mins
BSTAR
0.00090617
Loading maneuver chart data...
Computing Atmospheric mass density...

Documentation

Showing up to 5 results
|